Find Starlink 33594

NORAD ID: 62770 Int'l Des: 2025-015 Owner: SPXS Country: US Constellation: starlink operational
LEOCIRCULAR

リアルタイム位置

3D地球を読み込み中...

Starlink 33594について

説明を読み込み中...

次回通過

Passes for default location (London). Set your location on the main map for personalized predictions.

高度履歴

Loading altitude history...

軌道要素

1 62770U 25015N 26127.06705693 .00025038 00000-0 85438-3 0 9998
2 62770 53.1595 50.9681 0001268 83.8570 276.2575 15.30209343 73429
Epoch: May 7, 2026 • Age: 7 hours

現在のステータス

高度 477.1 km
速度 7.63 km/s
衛星直下点 34.83°N, 153.77°W
打ち上げ日 Jan 21, 2025
運用期間 1.2 years
タイプ internet

技術仕様

分類 Payload
質量 575.00 kg
乾燥質量 530.00 kg
総質量 575.00 kg
長さ 0.30 m
直径 4.10 m
スパン 29.00 m
形状 Box + pan
製造者 SPXS
バスタイプ Starlink V2MO
フェーズステータス In Orbit
所有者/国 SPXS/US

Most Searched